Weather History for Saint Helena Island, St. Helena

Change the Weather History Date:

Thursday, December 5, 2013

  Actual Average Record
Temperature  
Mean Temperature 66 °F -  
Max Temperature 70 °F - - ()
Min Temperature 61 °F - - ()
Growing Degree Days 16 (Base 50)    
Moisture  
Dew Point 58 °F    
Average Humidity 76    
Maximum Humidity 93    
Minimum Humidity 60    
Precipitation  
Precipitation 0.00 in - - ()
Sea Level Pressure  
Sea Level Pressure 30.08 in    
Wind  
Wind Speed 13 mph ()    
Max Wind Speed 17 mph    
Max Gust Speed -    
Visibility 13.7 miles    
Events      
T = Trace of Precipitation, MM = Missing Value Source: Averaged Metar Reports

Daily Weather History Graph

Daily Weather History Graph

Search for Another Location

Airport:

Trip Planner

Search our weather history database for the weather conditions in past years. The results will help you decide how hot, cold, wet, or windy it might be!

Date:

Astronomy

Dec. 05, 2013 Rise Set
Actual Time 5:42 AM GMT 6:44 PM GMT
Civil Twilight 5:18 AM GMT 7:08 PM GMT
Nautical Twilight 4:50 AM GMT 7:35 PM GMT
Astronomical Twilight 4:22 AM GMT 8:04 PM GMT
Moon 8:11 AM GMT (12/5) 9:21 PM GMT (12/5)
Length of Visible Light 13h 49m
Length of Day
13h 01m
Waxing Crescent, 9% of the Moon is Illuminated
Dec 5
Waxing Crescent
Dec 9
First Quarter
Dec 17
Full
Dec 25
Last Quarter
Jan 1
New

Hourly Weather History & Observations

Time (GMT) Temp. Dew Point Humidity Pressure Visibility Wind Dir Wind Speed Gust Speed Precip Events Conditions
12:00 AM 62 °F 58 °F 83% 30.11 in - SE 12.7 mph - -  
1:00 AM 62 °F 59 °F 87% 30.09 in - SE 15.0 mph - -  
2:00 AM 62 °F 58 °F 83% 30.07 in - SE 15.0 mph - -  
3:00 AM 62 °F 58 °F 84% 30.06 in - SE 12.7 mph - -  
4:00 AM 62 °F 59 °F 87% 30.06 in - ESE 15.0 mph - -  
5:00 AM 62 °F 57 °F 77% 30.06 in - SE 15.0 mph - -  
6:00 AM 62 °F 59 °F 86% 30.08 in - SE 15.0 mph - -  
7:00 AM 62 °F 58 °F 81% 30.10 in - SE 16.1 mph - -  
8:00 AM 63 °F 58 °F 78% 30.11 in - SE 16.1 mph - -  
9:00 AM 64 °F 57 °F 72% 30.12 in 16 mi ESE 16.1 mph - -   Mostly Cloudy
10:00 AM 67 °F 57 °F 63% 30.11 in 12 mi SE 17.3 mph - -   Mostly Cloudy
11:00 AM 68 °F 58 °F 62% 30.10 in - SE 15.0 mph - -  
12:00 PM 68 °F 58 °F 61% 30.09 in 16 mi SE 16.1 mph - -   Mostly Cloudy
1:00 PM 69 °F 58 °F 60% 30.08 in 16 mi SE 15.0 mph - -   Partly Cloudy
2:00 PM 69 °F 59 °F 63% 30.07 in 12 mi SE 15.0 mph - -   Mostly Cloudy
3:00 PM 65 °F 59 °F 76% 30.07 in 12 mi ESE 11.5 mph - -   Mostly Cloudy
4:00 PM 65 °F 60 °F 78% 30.05 in 12 mi ESE 11.5 mph - -   Mostly Cloudy
5:00 PM 64 °F 56 °F 70% 30.04 in - SE 15.0 mph - -  
6:00 PM 64 °F 57 °F 71% 30.05 in - SE 10.4 mph - -  
7:00 PM 63 °F 57 °F 74% 30.06 in - SE 11.5 mph - -  
8:00 PM 62 °F 57 °F 77% 30.07 in - SE 12.7 mph - -  
9:00 PM 62 °F 58 °F 81% 30.09 in - SSE 12.7 mph - -  
10:00 PM 62 °F 57 °F 79% 30.10 in - SSE 12.7 mph - -  
11:00 PM 62 °F 60 °F 93% 30.10 in - SE 13.8 mph - -